CW4489 Marathon FL US current weather conditions

sailwx.info

Wind from 081 at 1 knots gusting 4

Air temperature 29.4° C
Dewpoint 24.8° C

Last reported at 2015-May-23 12:49 UTC.
Time now 2015-May-23 13:24 UTC

Location: N 24°44' W 081°02'.
View on Google Maps.

See reports from other nearby stations

  
Tides and Currents Weather Stations Pressure Air Temp Water Temp Dewpoint Dewpoint Depression Visibility Wind Speed Wind Dir Waves Ship Positions
date/time (UTC)wind fromknots sea level pressurealtimeterstation pressurevisibilityair tempwater tempwave heightnotes
2015-May-23 12:49 081 1 gusting 4 29.4
2015-May-23 12:39 098 28.9
2015-May-23 12:29 084 1 gusting 4 28.9
2015-May-23 12:19 078 28.9
2015-May-23 12:09 123 28.3
2015-May-23 11:59 089 0 gusting 4 27.8
2015-May-23 11:49 101 2 gusting 2 27.8
2015-May-23 11:29 104 27.2
2015-May-23 11:19 078 27.2
2015-May-23 11:09 108 1 gusting 2 27.2
2015-May-23 10:49 069 27.2
2015-May-23 10:39 103 27.2
2015-May-23 10:19 069 27.2
2015-May-23 10:09 086 27.2
2015-May-23 09:59 116 27.2
2015-May-23 09:49 087 0 gusting 1 27.2
2015-May-23 09:39 085 27.2
2015-May-23 09:29 131 27.2
2015-May-23 09:09 100 27.2
2015-May-23 08:59 084 27.2
2015-May-23 08:49 078 27.2
2015-May-23 08:39 093 1 gusting 2 27.2
2015-May-23 08:19 083 27.2
2015-May-23 08:09 092 27.2
2015-May-23 07:49 092 0 gusting 0 27.2
2015-May-23 07:39 103 0 gusting 1 27.2
2015-May-23 07:29 082 27.2
2015-May-23 07:10 078 0 gusting 2 27.2
2015-May-23 06:59 084 27.2
2015-May-23 06:49 117 2 gusting 2 27.2
2015-May-23 06:39 118 2 gusting 4 27.2
2015-May-23 05:59 083 27.2
2015-May-23 05:49 104 1 gusting 2 27.2
2015-May-23 05:39 088 1 gusting 1 27.2
2015-May-23 05:29 140 27.2
2015-May-23 05:19 088 27.2
2015-May-23 05:09 088 27.2
2015-May-23 04:29 103 27.2
2015-May-23 04:19 084 27.2
2015-May-23 03:19 097 27.8
2015-May-23 03:09 090 27.8
2015-May-23 02:49 107 0 gusting 2 27.8
2015-May-23 02:39 070 27.8
2015-May-23 02:29 075 1 gusting 1 27.8
2015-May-23 02:19 065 27.8
2015-May-23 02:09 068 27.8
2015-May-23 01:29 046 27.8
2015-May-23 01:09 036 2 gusting 4 27.8
2015-May-23 00:39 038 3 gusting 6 28.9
2015-May-23 00:29 033 1 gusting 6 28.9
2015-May-23 00:19 032 2 gusting 5 28.9
2015-May-22 23:49 025 3 gusting 6 29.4
2015-May-22 23:19 043 1 gusting 3 30.0
2015-May-22 23:09 360 2 gusting 4 30.0
2015-May-22 22:59 346 2 gusting 4 30.6
2015-May-22 22:49 014 30.6
2015-May-22 22:39 019 2 gusting 2 31.1
2015-May-22 22:29 347 2 gusting 4 31.7
2015-May-22 22:19 346 32.2
2015-May-22 21:59 196 0 gusting 1 31.7
2015-May-22 21:39 204 1 gusting 3 31.7
2015-May-22 21:29 214 2 gusting 3 31.1
2015-May-22 21:19 213 2 gusting 4 31.1
2015-May-22 21:09 196 2 gusting 5 31.7
2015-May-22 20:39 193 2 gusting 3 31.7
2015-May-22 20:29 194 3 gusting 4 31.7
2015-May-22 20:19 213 2 gusting 6 31.7
2015-May-22 20:09 198 2 gusting 4 31.7
2015-May-22 19:59 174 1 gusting 5 31.1
2015-May-22 19:49 196 2 gusting 5 30.6
2015-May-22 19:39 197 1 gusting 3 30.6
2015-May-22 19:19 215 3 gusting 5 31.1
2015-May-22 18:59 180 1 gusting 5 32.2
2015-May-22 18:49 196 3 gusting 5 32.2
2015-May-22 18:39 173 2 gusting 4 31.7
2015-May-22 18:29 178 2 gusting 4 31.1
2015-May-22 18:19 199 2 gusting 4 30.6
2015-May-22 18:09 188 3 gusting 4 30.6
2015-May-22 17:59 161 0 gusting 2 30.0
2015-May-22 17:49 228 0 gusting 2 30.0
2015-May-22 17:39 069 30.0
2015-May-22 17:29 023 30.0
2015-May-22 16:59 172 1 gusting 2 30.6
2015-May-22 16:39 360 0 gusting 1 28.9
2015-May-22 16:29 016 2 gusting 5 28.9
2015-May-22 16:19 034 2 gusting 4 31.1
2015-May-22 16:09 172 31.7
2015-May-22 15:39 178 2 gusting 3 30.6
2015-May-22 15:29 227 1 gusting 2 30.0
2015-May-22 15:19 313 1 gusting 2 30.0
2015-May-22 15:09 054 30.0
2015-May-22 14:59 048 2 gusting 2 30.0
2015-May-22 14:49 057 30.0
2015-May-22 14:29 022 2 gusting 3 31.1
2015-May-22 14:19 057 2 gusting 4 31.1
2015-May-22 14:09 037 2 gusting 4 31.1
2015-May-22 13:59 027 2 gusting 4 31.1
2015-May-22 13:49 056 0 gusting 3 31.1
2015-May-22 13:29 068 3 gusting 4 30.6
2015-May-22 13:09 038 0 gusting 3 30.0
2015-May-22 12:19 020 1 gusting 2 28.3
2015-May-22 12:09 338 2 gusting 4 28.3
2015-May-22 11:29 232 26.7
2015-May-22 11:19 232 26.7
2015-May-22 11:09 232 26.7
2015-May-22 10:59 232 26.7
2015-May-22 10:39 232 26.7
2015-May-22 10:29 232 26.7
2015-May-22 10:19 232 26.7
2015-May-22 10:09 232 27.2
2015-May-22 09:59 232 26.7
2015-May-22 09:49 232 27.2
2015-May-22 09:09 230 27.2
2015-May-22 08:49 254 27.2
2015-May-22 08:39 298 27.2
2015-May-22 08:29 333 27.2
2015-May-22 08:19 333 27.2
2015-May-22 08:09 333 27.2
2015-May-22 07:59 333 27.2
2015-May-22 07:49 333 27.2
2015-May-22 07:39 333 27.2
2015-May-22 07:29 333 27.2
2015-May-22 07:09 333 27.2
2015-May-22 06:59 333 27.2
2015-May-22 06:49 333 27.8
2015-May-22 06:39 333 27.8
2015-May-22 06:29 333 27.8
2015-May-22 05:59 333 27.8
2015-May-22 05:49 333 0 gusting 0 27.8
2015-May-22 05:39 333 27.8
2015-May-22 05:29 333 27.8
2015-May-22 04:59 332 1 gusting 1 27.8
2015-May-22 04:49 325 27.8
2015-May-22 04:39 325 27.8
2015-May-22 04:09 324 27.8
2015-May-22 03:59 328 1 gusting 1 27.8
2015-May-22 03:39 327 27.8
2015-May-22 03:19 360 2 gusting 4 27.8
2015-May-22 03:09 325 1 gusting 3 28.3
2015-May-22 02:59 302 1 gusting 3 28.3
2015-May-22 02:49 315 1 gusting 3 28.3
2015-May-22 02:39 326 1 gusting 2 27.8
2015-May-22 02:29 322 0 gusting 2 28.3
2015-May-22 01:59 344 1 gusting 2 28.3
2015-May-22 01:39 317 0 gusting 1 28.3
2015-May-22 01:29 339 28.3
2015-May-22 00:59 005 28.3
2015-May-22 00:49 027 0 gusting 2 28.3
2015-May-22 00:39 355 28.9
2015-May-22 00:29 308 0 gusting 2 28.9
2015-May-22 00:19 325 1 gusting 2 28.9
2015-May-21 23:49 283 0 gusting 2 29.4
2015-May-21 23:39 277 30.0
2015-May-21 23:29 243 0 gusting 3 30.0
2015-May-21 23:19 305 1 gusting 3 30.0
2015-May-21 23:09 293 1 gusting 3 30.0
2015-May-21 22:49 351 2 gusting 3 30.0
2015-May-21 22:39 297 2 gusting 5 30.0
2015-May-21 22:29 320 2 gusting 4 30.6
2015-May-21 22:19 305 5 gusting 6 30.6
2015-May-21 21:59 312 2 gusting 5 30.6
2015-May-21 21:39 360 2 gusting 3 31.1
2015-May-21 21:09 289 2 gusting 5 31.7
2015-May-21 20:59 331 1 gusting 4 31.7
2015-May-21 20:49 280 1 gusting 5 31.7
2015-May-21 20:39 269 2 gusting 4 31.7
2015-May-21 20:29 261 2 gusting 5 31.7
2015-May-21 20:19 306 2 gusting 6 31.7
2015-May-21 20:09 325 2 gusting 5 31.7
2015-May-21 19:39 338 2 gusting 6 31.1
2015-May-21 19:29 309 2 gusting 6 31.7
2015-May-21 19:19 311 3 gusting 5 32.2
2015-May-21 19:09 305 5 gusting 5 33.3
2015-May-21 18:59 338 0 gusting 2 33.3
2015-May-21 18:49 034 1 gusting 2 32.8
2015-May-21 18:29 311 33.3
2015-May-21 18:09 340 0 gusting 4 32.2
2015-May-21 17:59 030 2 gusting 4 31.7
2015-May-21 17:49 011 0 gusting 5 30.6
2015-May-21 17:39 005 0 gusting 6 31.1
2015-May-21 17:29 355 3 gusting 6 31.7
2015-May-21 17:19 351 2 gusting 5 31.7
2015-May-21 17:09 282 0 gusting 4 31.7
2015-May-21 16:49 321 2 gusting 6 31.7
2015-May-21 16:09 325 2 gusting 5 31.1
2015-May-21 15:59 300 0 gusting 7 31.1
2015-May-21 15:49 310 4 gusting 6 31.1
2015-May-21 15:29 331 2 gusting 5 31.7
2015-May-21 15:19 254 0 gusting 3 31.1
2015-May-21 15:09 329 2 gusting 4 31.1
2015-May-21 14:59 310 5 gusting 5 30.6
2015-May-21 14:19 331 2 gusting 3 30.0
2015-May-21 13:59 339 2 gusting 4 29.4
2015-May-21 13:49 332 2 gusting 4 28.9
2015-May-21 13:39 331 4 gusting 4 29.4
2015-May-21 13:29 255 2 gusting 2 29.4
2015-May-21 13:19 288 1 gusting 2 28.9
2015-May-21 13:09 260 1 gusting 2 28.9